Date String (YYYY-MM-DD hh:mm:ss) UTC,Instrument flags,Ambient pressure (hPa),Sample flow (lpm),Bypass flow (lpm),Sample temperature (°C),Ambient temperature (°C),ASC tube jacket temperature (°C),LED temperature (°C),Box temperature (°C),Sample RH (%),Span deviation,Mass concentration (μg/m³),Mass concentration (μg/m³),Mass concentration (μg/m³)
DateTimeUTC,F1_M11,P_M11,Q1_M11,Q2_M11,T1_M11,T2_M11,T3_M11,T4_M11,T5_M11,U1_M11,ZSPAN_M11,X0_M11,X2_M11,X1_M11
2022-10-29 15:00:00,,0831.2,5.01,0.00,23.1,21.8,00.0,31.9,25.1,10.6,0000.0,0010.38,0005.09,0004.76
2022-10-29 15:01:00,,0831.2,5.01,0.00,23.2,21.9,00.0,31.9,25.1,10.7,0000.0,0010.90,0005.20,0004.86
2022-10-29 15:02:00,,0831.2,4.98,0.00,23.2,21.9,00.0,31.9,25.0,10.8,0000.0,0010.39,0005.34,0004.99
2022-10-29 15:03:00,,0831.2,5.00,0.00,23.2,21.9,00.0,31.9,25.1,10.9,0000.0,0010.13,0005.47,0005.11
2022-10-29 15:04:00,,0831.2,5.01,0.00,23.2,21.9,00.0,31.9,25.1,10.9,0000.0,0010.17,0005.57,0005.22
2022-10-29 15:05:00,,0831.2,5.01,0.00,23.2,21.9,00.0,31.9,25.1,10.9,0000.0,0010.19,0005.66,0005.34
2022-10-29 15:06:00,,0831.2,4.99,0.00,23.2,21.9,00.0,31.9,25.1,10.9,0000.0,0010.23,0005.76,0005.46
2022-10-29 15:07:00,,0831.2,5.00,0.00,23.2,21.9,00.0,31.9,25.1,10.9,0000.0,0010.42,0005.89,0005.58
2022-10-29 15:08:00,,0831.2,5.00,0.00,23.2,21.9,00.0,31.9,25.1,11.0,0000.0,0010.25,0005.98,0005.68
2022-10-29 15:09:00,,0831.2,4.98,0.00,23.2,21.9,00.0,32.0,25.1,11.1,0000.0,0010.39,0006.11,0005.80
2022-10-29 15:10:00,,0831.3,5.00,0.00,23.2,21.9,00.0,32.0,25.1,11.2,0000.0,0009.96,0006.20,0005.89
2022-10-29 15:11:00,,0831.3,5.01,0.00,23.2,21.9,00.0,32.0,25.1,11.2,0000.0,0009.67,0006.28,0005.95
2022-10-29 15:12:00,,0831.3,5.00,0.00,23.2,22.0,00.0,32.0,25.1,11.3,0000.0,0009.20,0006.37,0006.05
2022-10-29 15:13:00,,0831.4,4.98,0.00,23.2,22.0,00.0,32.0,25.2,11.2,0000.0,0009.22,0006.38,0006.06
2022-10-29 15:14:00,,0831.4,5.01,0.00,23.3,22.0,00.0,32.0,25.2,11.1,0000.0,0009.23,0006.35,0006.03
2022-10-29 15:15:00,,0831.3,4.99,0.00,23.3,22.0,00.0,32.0,25.2,11.0,0000.0,0009.34,0006.37,0006.04
2022-10-29 15:16:00,,0831.3,5.01,0.00,23.3,22.0,00.0,32.0,25.2,11.1,0000.0,0009.35,0006.38,0006.05
2022-10-29 15:17:00,,0831.4,5.02,0.00,23.3,22.0,00.0,32.0,25.2,11.0,0000.0,0009.42,0006.39,0006.04
2022-10-29 15:18:00,,0831.4,4.98,0.00,23.3,22.1,00.0,32.0,25.2,11.1,0000.0,0009.52,0006.39,0006.03
2022-10-29 15:19:00,,0831.3,5.01,0.00,23.3,22.1,00.0,32.0,25.2,11.2,0000.0,0009.56,0006.36,0005.99
2022-10-29 15:20:00,,0831.3,4.99,0.00,23.3,22.1,00.0,32.1,25.2,11.1,0000.0,0009.40,0006.35,0005.95
2022-10-29 15:21:00,,0831.3,5.01,0.00,23.3,22.1,00.0,32.1,25.2,11.1,0000.0,0009.23,0006.32,0005.94
2022-10-29 15:22:00,,0831.4,5.01,0.00,23.3,22.1,00.0,32.1,25.2,11.1,0000.0,0009.12,0006.30,0005.94
2022-10-29 15:23:00,,0831.3,5.00,0.00,23.4,22.2,00.0,32.1,25.2,11.3,0000.0,0009.03,0006.26,0005.91
2022-10-29 15:24:00,,0831.3,4.98,0.00,23.4,22.2,00.0,32.1,25.2,11.3,0000.0,0008.99,0006.21,0005.86
2022-10-29 15:25:00,,0831.4,5.01,0.00,23.4,22.2,00.0,32.1,25.3,11.2,0000.0,0009.01,0006.23,0005.87
2022-10-29 15:26:00,,0831.4,5.01,0.00,23.4,22.2,00.0,32.1,25.3,11.4,0000.0,0008.99,0006.26,0005.89
2022-10-29 15:27:00,,0831.5,4.98,0.00,23.4,22.2,00.0,32.2,25.3,11.3,0000.0,0008.93,0006.26,0005.90
2022-10-29 15:28:00,,0831.4,5.01,0.00,23.4,22.3,00.0,32.2,25.4,11.0,0000.0,0009.01,0006.34,0005.97
2022-10-29 15:29:00,,0831.5,4.99,0.00,23.5,22.3,00.0,32.2,25.4,11.3,0000.0,0009.60,0006.33,0006.01
2022-10-29 15:30:00,,0831.4,4.99,0.00,23.5,22.3,00.0,32.2,25.4,11.2,0000.0,0009.64,0006.34,0006.03
2022-10-29 15:31:00,,0831.4,5.01,0.00,23.5,22.3,00.0,32.2,25.4,11.3,0000.0,0009.89,0006.38,0006.08
2022-10-29 15:32:00,,0831.4,4.98,0.00,23.5,22.3,00.0,32.2,25.5,11.3,0000.0,0009.97,0006.41,0006.11
2022-10-29 15:33:00,,0831.5,5.00,0.00,23.5,22.3,00.0,32.2,25.5,11.6,0000.0,0010.02,0006.43,0006.12
2022-10-29 15:34:00,,0831.4,5.01,0.00,23.5,22.4,00.0,32.3,25.5,11.6,0000.0,0010.08,0006.44,0006.13
2022-10-29 15:35:00,,0831.4,5.00,0.00,23.5,22.4,00.0,32.3,25.4,11.6,0000.0,0010.12,0006.49,0006.19
2022-10-29 15:36:00,,0831.4,4.99,0.00,23.6,22.4,00.0,32.3,25.5,11.5,0000.0,0010.70,0006.55,0006.25
2022-10-29 15:37:00,,0831.4,4.99,0.00,23.6,22.4,00.0,32.3,25.5,11.3,0000.0,0011.17,0006.61,0006.32
2022-10-29 15:38:00,,0831.4,5.01,0.00,23.6,22.4,00.0,32.3,25.5,11.5,0000.0,0011.36,0006.72,0006.40
2022-10-29 15:39:00,,0831.4,5.01,0.00,23.6,22.4,00.0,32.3,25.5,11.5,0000.0,0011.58,0006.75,0006.41
2022-10-29 15:40:00,,0831.4,4.98,0.00,23.6,22.4,00.0,32.3,25.5,11.3,0000.0,0011.12,0006.79,0006.42
2022-10-29 15:41:00,,0831.4,5.01,0.00,23.6,22.4,00.0,32.3,25.5,11.1,0000.0,0011.16,0006.86,0006.48
2022-10-29 15:42:00,,0831.4,5.01,0.00,23.6,22.4,00.0,32.4,25.5,11.2,0000.0,0011.28,0006.93,0006.54
2022-10-29 15:43:00,,0831.4,5.01,0.00,23.6,22.4,00.0,32.4,25.5,11.3,0003.3,0012.07,0006.99,0006.59
2022-10-29 15:44:00,,0831.3,4.99,0.00,23.6,22.4,00.0,32.4,25.5,11.2,0004.2,0012.25,0007.06,0006.66
2022-10-29 15:45:00,,0831.4,5.00,0.00,23.7,22.4,00.0,32.4,25.5,11.4,0006.8,0012.33,0007.14,0006.74
2022-10-29 15:46:00,,0831.4,5.01,0.00,23.7,22.4,00.0,32.4,25.5,11.5,0007.0,0012.41,0007.22,0006.81
2022-10-29 15:47:00,,0831.4,4.98,0.00,23.7,22.5,00.0,32.4,25.5,11.6,0006.9,0011.88,0007.23,0006.84
2022-10-29 15:48:00,,0831.3,5.01,0.00,23.7,22.5,00.0,32.4,25.6,11.7,0006.5,0011.81,0007.19,0006.82
2022-10-29 15:49:00,,0831.3,5.01,0.00,23.7,22.5,00.0,32.4,25.6,11.4,0006.1,0012.37,0007.23,0006.84
2022-10-29 15:50:00,,0831.3,5.01,0.00,23.7,22.5,00.0,32.4,25.6,11.6,0005.9,0012.23,0007.25,0006.87
2022-10-29 15:51:00,,0831.2,4.99,0.00,23.7,22.5,00.0,32.5,25.6,11.4,0006.0,0012.31,0007.27,0006.90
2022-10-29 15:52:00,,0831.2,5.00,0.00,23.7,22.5,00.0,32.5,25.6,11.2,0004.6,0012.43,0007.29,0006.92
2022-10-29 15:53:00,,0831.2,5.01,0.00,23.7,22.5,00.0,32.5,25.6,11.4,0005.8,0012.40,0007.27,0006.91
2022-10-29 15:54:00,,0831.2,5.01,0.00,23.8,22.5,00.0,32.5,25.6,11.5,0006.2,0011.61,0007.26,0006.91
2022-10-29 15:55:00,,0831.2,4.98,0.00,23.8,22.6,00.0,32.5,25.6,11.6,0005.9,0011.51,0007.26,0006.91
2022-10-29 15:56:00,,0831.2,5.00,0.00,23.8,22.6,00.0,32.5,25.6,11.9,0006.0,0012.02,0007.28,0006.92
2022-10-29 15:57:00,,0831.1,5.00,0.00,23.8,22.6,00.0,32.5,25.6,11.8,0006.0,0013.17,0007.29,0006.92
2022-10-29 15:58:00,,0831.2,5.00,0.00,23.8,22.6,00.0,32.5,25.6,11.9,0006.1,0014.48,0007.32,0006.95
2022-10-29 15:59:00,,0831.2,5.00,0.00,23.8,22.6,00.0,32.5,25.7,12.1,0005.9,0015.28,0007.36,0006.96
